| time (UTC) | temp F | wind direction | speed knots | gust knots | rain 1hr in | rain 24hr in | rain mn in | humidity % | barometer mb |
| 20260505121544 | 51 | 121 | 1.7 | 4.3 | 0.00 | 0.00 | 0.00 | 91 | 1014.3 |
| 20260505120053 | 51 | 0 | 1.7 | 4.3 | 0.00 | 0.00 | 0.00 | 90 | 1014.1 |
| 20260505114557 | 51 | 158 | 1.7 | 6.1 | 0.00 | 0.00 | 0.00 | 90 | 1014.0 |
| 20260505113057 | 51 | 158 | 1.7 | 3.5 | 0.00 | 0.00 | 0.00 | 89 | 1014.1 |
| 20260505111547 | 51 | 163 | 1.7 | 5.2 | 0.00 | 0.00 | 0.00 | 89 | 1014.0 |
| 20260505101550 | 52 | 150 | 2.6 | 6.1 | 0.00 | 0.00 | 0.00 | 89 | 1013.7 |
| 20260505100048 | 52 | 153 | 1.7 | 6.1 | 0.00 | 0.00 | 0.00 | 89 | 1013.6 |
| 20260505094548 | 52 | 178 | 2.6 | 6.1 | 0.00 | 0.00 | 0.00 | 89 | 1013.7 |
| 20260505093056 | 52 | 219 | 0.9 | 2.6 | 0.00 | 0.00 | 0.00 | 89 | 1013.5 |
| 20260505091555 | 52 | 256 | 0.0 | 1.7 | 0.00 | 0.00 | 0.00 | 88 | 1013.5 |
| 20260505090042 | 52 | 0 | 0.0 | 0.9 | 0.00 | 0.00 | 0.00 | 89 | 1013.3 |
| 20260505084549 | 52 | 0 | 0.0 | 1.7 | 0.00 | 0.00 | 0.00 | 88 | 1013.3 |
| 20260505083054 | 52 | 247 | 0.0 | 1.7 | 0.00 | 0.00 | 0.00 | 87 | 1013.3 |
| 20260505081548 | 52 | 247 | 0.0 | 1.7 | 0.00 | 0.00 | 0.00 | 87 | 1013.2 |
| 20260505080047 | 53 | 247 | 0.9 | 1.7 | 0.00 | 0.00 | 0.00 | 87 | 1013.1 |
| 20260505074543 | 53 | 266 | 0.9 | 1.7 | 0.00 | 0.00 | 0.00 | 86 | 1013.0 |
| 20260505073054 | 53 | 334 | 0.9 | 2.6 | 0.00 | 0.00 | 0.00 | 84 | 1012.9 |
| 20260505071558 | 54 | 303 | 0.0 | 1.7 | 0.00 | 0.00 | 0.00 | 84 | 1012.7 |
| 20260505070056 | 54 | 274 | 0.9 | 5.2 | 0.00 | 0.00 | 0.00 | 84 | 1012.5 |
| 20260505064550 | 55 | 207 | 2.6 | 6.1 | 0.00 | 0.00 | 0.00 | 83 | 1012.2 |
| 20260505063045 | 55 | 253 | 2.6 | 5.2 | 0.00 | 0.00 | 0.00 | 82 | 1012.1 |
| 20260505061546 | 56 | 240 | 3.5 | 7.0 | 0.00 | 0.00 | 0.00 | 80 | 1012.0 |
| 20260505060049 | 57 | 226 | 2.6 | 6.1 | 0.00 | 0.00 | 0.00 | 78 | 1011.9 |
| 20260505054543 | 59 | 197 | 1.7 | 2.6 | 0.00 | 0.00 | 0.00 | 75 | 1011.9 |
| 20260505053042 | 59 | 186 | 0.9 | 3.5 | 0.00 | 0.00 | 0.00 | 74 | 1011.8 |
| 20260505051558 | 60 | 201 | 0.9 | 3.5 | 0.00 | 0.00 | 0.00 | 72 | 1011.6 |
| 20260505041540 | 63 | 208 | 0.9 | 5.2 | 0.00 | 0.00 | 0.00 | 68 | 1011.1 |
| 20260505040048 | 64 | 247 | 1.7 | 6.1 | 0.00 | 0.00 | 0.00 | 66 | 1010.8 |
| 20260505034544 | 65 | 211 | 4.3 | 11.3 | 0.00 | 0.00 | 0.00 | 64 | 1010.5 |
| 20260505033041 | 67 | 213 | 2.6 | 7.8 | 0.00 | 0.00 | 0.00 | 62 | 1010.5 |
| 20260505031549 | 69 | 155 | 2.6 | 6.1 | 0.00 | 0.00 | 0.00 | 61 | 1010.2 |
| 20260505030047 | 71 | 210 | 1.7 | 7.0 | 0.00 | 0.00 | 0.00 | 58 | 1010.0 |
| 20260505024549 | 72 | 214 | 4.3 | 9.6 | 0.00 | 0.00 | 0.00 | 57 | 1009.8 |
| 20260505023051 | 73 | 181 | 5.2 | 10.4 | 0.00 | 0.00 | 0.00 | 55 | 1009.7 |
| 20260505021544 | 73 | 210 | 4.3 | 9.6 | 0.00 | 0.00 | 0.00 | 53 | 1009.8 |
| 20260505020042 | 74 | 245 | 5.2 | 13.0 | 0.00 | 0.00 | 0.00 | 52 | 1009.7 |
| 20260505014542 | 75 | 256 | 7.0 | 12.2 | 0.00 | 0.00 | 0.00 | 49 | 1009.7 |
| 20260505013101 | 75 | 220 | 7.0 | 10.4 | 0.00 | 0.00 | 0.00 | 47 | 1009.6 |
| 20260505011550 | 76 | 240 | 4.3 | 10.4 | 0.00 | 0.00 | 0.00 | 43 | 1009.7 |
| 20260505010055 | 76 | 244 | 7.0 | 11.3 | 0.00 | 0.00 | 0.00 | 41 | 1009.8 |
| 20260505004542 | 77 | 219 | 5.2 | 9.6 | 0.00 | 0.00 | 0.00 | 39 | 1009.8 |
| 20260505003047 | 77 | 230 | 5.2 | 9.6 | 0.00 | 0.00 | 0.00 | 42 | 1009.7 |
| 20260505001548 | 77 | 230 | 5.2 | 10.4 | 0.00 | 0.00 | 0.00 | 43 | 1009.7 |
| 20260505000057 | 77 | 207 | 4.3 | 11.3 | 0.00 | 0.00 | 0.00 | 42 | 1009.7 |
| 20260504234545 | 77 | 186 | 4.3 | 9.6 | 0.00 | 0.00 | 0.00 | 41 | 1009.8 |
| 20260504233044 | 77 | 217 | 6.1 | 9.6 | 0.00 | 0.00 | 0.00 | 42 | 1009.8 |
| 20260504231542 | 78 | 245 | 5.2 | 11.3 | 0.00 | 0.00 | 0.00 | 41 | 1009.7 |
| 20260504230051 | 78 | 180 | 6.1 | 10.4 | 0.00 | 0.00 | 0.00 | 42 | 1009.9 |
| 20260504224546 | 77 | 102 | 3.5 | 10.4 | 0.00 | 0.00 | 0.00 | 40 | 1010.1 |
| 20260504223047 | 78 | 244 | 3.5 | 10.4 | 0.00 | 0.00 | 0.00 | 38 | 1010.2 |
| 20260504221541 | 77 | 234 | 2.6 | 11.3 | 0.00 | 0.00 | 0.00 | 37 | 1010.2 |
| 20260504220048 | 77 | 201 | 5.2 | 9.6 | 0.00 | 0.00 | 0.00 | 39 | 1010.4 |
| 20260504214557 | 76 | 220 | 4.3 | 9.6 | 0.00 | 0.00 | 0.00 | 39 | 1010.7 |
| 20260504213043 | 75 | 226 | 5.2 | 12.2 | 0.00 | 0.00 | 0.00 | 42 | 1010.7 |
| 20260504211541 | 76 | 205 | 4.3 | 9.6 | 0.00 | 0.00 | 0.00 | 43 | 1010.7 |
| 20260504210042 | 74 | 242 | 5.2 | 10.4 | 0.00 | 0.00 | 0.00 | 43 | 1010.6 |
| 20260504204551 | 74 | 215 | 4.3 | 12.2 | 0.00 | 0.00 | 0.00 | 44 | 1010.7 |
| 20260504203047 | 75 | 205 | 3.5 | 7.8 | 0.00 | 0.00 | 0.00 | 45 | 1010.6 |
| 20260504201557 | 76 | 240 | 2.6 | 8.7 | 0.00 | 0.00 | 0.00 | 46 | 1010.8 |
| 20260504200049 | 75 | 222 | 4.3 | 9.6 | 0.00 | 0.00 | 0.00 | 45 | 1010.9 |
| 20260504194548 | 74 | 281 | 3.5 | 8.7 | 0.00 | 0.00 | 0.00 | 44 | 1011.0 |
| 20260504193046 | 73 | 279 | 4.3 | 8.7 | 0.00 | 0.00 | 0.00 | 46 | 1011.0 |
| 20260504191556 | 72 | 309 | 5.2 | 8.7 | 0.00 | 0.00 | 0.00 | 45 | 1011.2 |
| 20260504190045 | 73 | 197 | 2.6 | 7.0 | 0.00 | 0.00 | 0.00 | 48 | 1011.2 |
| 20260504184554 | 71 | 215 | 4.3 | 11.3 | 0.00 | 0.00 | 0.00 | 49 | 1011.4 |
| 20260504183042 | 71 | 211 | 2.6 | 7.8 | 0.00 | 0.00 | 0.00 | 53 | 1011.4 |
| 20260504181548 | 70 | 242 | 1.7 | 7.0 | 0.00 | 0.00 | 0.00 | 52 | 1011.5 |
| 20260504180052 | 69 | 191 | 1.7 | 7.8 | 0.00 | 0.00 | 0.00 | 53 | 1011.4 |
| 20260504174544 | 68 | 68 | 2.6 | 7.8 | 0.00 | 0.00 | 0.00 | 54 | 1011.3 |
| 20260504173050 | 68 | 149 | 1.7 | 7.0 | 0.00 | 0.00 | 0.00 | 55 | 1011.4 |
| 20260504171551 | 67 | 172 | 2.6 | 7.8 | 0.00 | 0.00 | 0.00 | 56 | 1011.4 |